Regional Weather Roundup
Issued by NWS Northern Indiana

Home | Current Version | Previous Version | Text Only | Print | Product List | Glossary Off
Versions: 1 2 3 4 5 6 7 8 9 10 11 12 13 14 15 16 17 18 19 20 21 22 23 24 25 26 27 28 29 30 31 32 33 34 35 36 37 38 39 40 41 42 43 44 45 46 47 48 49 50

000
ASUS43 KIWX 261900
RWRIWX

KIWX WEATHER ROUNDUP
NATIONAL WEATHER SERVICE NORTHERN INDIANA
300 PM EDT WED APR 26 2017

NOTE: "FAIR" INDICATES FEW OR NO CLOUDS BELOW 12,000 FEET WITH NO
SIGNIFICANT WEATHER AND/OR OBSTRUCTIONS TO VISIBILITY.

* THESE STATIONS ARE NOT UNDER NWS QUALITY CONTROL. THEY ALSO MAY NOT
  REPORT WEATHER SUCH AS PRECIPITATION OR FOG.

INZ001>027-262000-
NORTHERN INDIANA

CITY           SKY/WX    TMP DP  RH WIND       PRES   REMARKS
GARY*          MOSUNNY   79  52  38 SW24G36   29.50R
KNOX*          MOSUNNY   82  18   9 SW28G35   29.48R
SOUTH BEND     MOSUNNY   82  54  37 SW29G36   29.49R
GOSHEN         PTSUNNY   80  56  43 S25G33    29.50R
MONTICELLO*    MOSUNNY   82  53  36 SW22G28   29.50S
ANGOLA*        SUNNY     81  75  83 S14       29.52S
FORT WAYNE     MOSUNNY   82  59  45 S25G37    29.53F
PERU/GRISSOM   MOSUNNY   82  59  45 SW23G33   29.52R

$$
INZ028>050-262000-
CENTRAL INDIANA

CITY           SKY/WX    TMP DP  RH WIND       PRES   REMARKS
LAFAYETTE      MOSUNNY   81  55  40 S16G25    29.50F
KOKOMO*        MOSUNNY   83  59  44 SW25G31   29.55R
MUNCIE*        SUNNY     84  59  42 SW17G32   29.54F
INDIANAPOLIS   MOSUNNY   83  60  45 S16G24    29.55S

$$
MIZ043>046-050>051-056>058-064>065-071>073-077>080-262000-
SOUTHWEST LOWER MICHIGAN

CITY           SKY/WX    TMP DP  RH WIND       PRES   REMARKS
BATTLE CREEK   CLOUDY    77  59  53 S21G30    29.51R
BENTON HARBOR  PTSUNNY   75  56  51 W21G29    29.48R
COLDWATER*     MOSUNNY   79  57  46 S13G23    29.52S
HILLSDALE*     SUNNY     77  55  47 S20G28    29.54S
HOLLAND        CLOUDY    76  59  55 SW20G26   29.47R
GRAND RAPIDS   PTSUNNY   79  60  52 S24G33    29.47S
KALAMAZOO      PTSUNNY   78  58  49 S23       29.49S
STURGIS*       CLOUDY    78  60  54 S16G29    29.50S
THREE RIVERS*  PTSUNNY   78  59  52 S18G28    29.50S

$$
OHZ001>008-015>018-024>025-262000-
NORTHWEST OHIO

CITY           SKY/WX    TMP DP  RH WIND       PRES   REMARKS
DEFIANCE       SUNNY     80  54  40 S21G30    29.54F
FINDLAY        SUNNY     85  51  31 S21G35    29.56F
TOLEDO EXPRESS SUNNY     81  53  37 S16G28    29.55F
TOLEDO METCALF SUNNY     83  54  36 S17G30    29.56F
LIMA           SUNNY     81  54  39 S21G30    29.57F

$$
AND FOR LAKE MICHIGAN COASTAL AND OPEN LAKE BUOY OBSERVATIONS

STATION/POSITION TEMP    WIND        PRES    VSBY  WAVE
                 AIR SEA DIR/SP/G                  HT/PER
                 (F)     (DEG/KT/KT) (MB)    (MI)  (FT/S)
CALUMET HARBOR    75     230/ 13/ 21  998.0R
MICHIGAN CITY     72     220/ 23/ 27   N/A
BURNS HARBOR      74     240/ 22/ 26  998.6R
SOUTH LAKE BUOY   49 41  170/ 10/ 14  997.6          2/ 4
4 MI NW BRIDGMAN  56 49  270/  8/ 10  998.4R         2/ 3
MICHIGAN CITY     61 49                N/A           2/ 3

$$
&&




USA.gov is the U.S. government's official web portal to all federal, state and local government web resources and services.